Home   Weather   Charlottetown   Past weeks

Flag for Canada Past Weather in Charlottetown, Prince Edward Island, Canada — Yesterday and Last 2 Weeks

Now
54 °F

More clouds than sun.


Feels Like: 52 °F
Forecast: 49 / 56 °F
Wind: 7 mph from Northwest

Location: Charlottetown

Current Time: Sep 27, 2016 at 2:18:37 PM

Latest Report: Sep 27, 2016 at 1:00 PM


Visibility: 15 mi

Pressure: 29.96 "Hg

Humidity: 77%

Dew Point: 46 °F

Location of CharlottetownLocation

Past Weather in Charlottetown — Graph

°F

Charlottetown Temperature Yesterday

Maximum temperature yesterday: 54 °F (at 5:00 PM)
Minimum temperature yesterday: 45 °F (at 8:00 AM)
Average temperature yesterday: 49 °F

High & Low Weather Summary for the Past Weeks

 TemperatureHumidityPressure
High73 °F (Sep 13, 2:00 PM)100% (Sep 18, 8:00 PM)30.31 "Hg (Sep 18, 8:00 PM)
Low41 °F (Sep 16, 3:00 AM)38% (Sep 21, 5:00 PM)29.78 "Hg (Sep 14, 7:00 PM)
Average58 °F79%30.02 "Hg
* Reported Sep 12 1:00 PM — Sep 27 1:00 PM, Charlottetown, Weather by CustomWeather, © 2016

Note: Actual official high and low records may vary slightly from our data, if they occured in-between our weather recording intervals... More about our weather records

Advertising

Charlottetown Weather History for the Previous 24 Hours

Scroll right to see more
 ConditionsComfort  
Time TempWeatherWind HumidityBarometerVisibility
1:00 PM
Tue, Sep 27
54 °FMore clouds than sun.7 mph77%29.96 "Hg15 mi
12:00 PM54 °FOvercast.9 mph77%29.96 "Hg15 mi
11:00 AM52 °FPartly sunny.10 mph82%29.94 "Hg15 mi
10:00 AM52 °FPartly sunny.13 mph77%29.93 "Hg15 mi
9:00 AM50 °FPartly sunny.9 mph82%29.90 "Hg15 mi
8:00 AM48 °FPartly sunny.9 mph82%29.89 "Hg15 mi
7:00 AM48 °FPassing clouds.8 mph82%29.89 "Hg15 mi
6:00 AM48 °FPassing clouds.10 mph76%29.88 "Hg15 mi
5:00 AM48 °FClear.8 mph82%29.88 "Hg15 mi
4:00 AM48 °FClear.10 mph82%29.89 "Hg15 mi
3:00 AM48 °FClear.8 mph82%29.89 "Hg15 mi
2:00 AM46 °FPassing clouds.9 mph93%29.90 "Hg15 mi
1:00 AM46 °FPassing clouds.5 mph87%29.91 "Hg15 mi
12:00 AM46 °FPassing clouds.7 mph87%29.92 "Hg15 mi
11:00 PM
Mon, Sep 26
48 °FPassing clouds.7 mph82%29.93 "Hg15 mi
10:00 PM48 °FPassing clouds.6 mph76%29.95 "Hg15 mi
9:00 PM48 °FPassing clouds.6 mph76%29.96 "Hg15 mi
8:00 PM48 °FPassing clouds.3 mph76%29.97 "Hg15 mi
7:00 PM50 °FPassing clouds.5 mph71%29.96 "Hg15 mi
6:00 PM54 °FPartly sunny.9 mph58%29.95 "Hg15 mi
5:00 PM54 °FPartly sunny.6 mph67%29.96 "Hg15 mi
4:00 PM52 °FPartly sunny.10 mph67%29.97 "Hg15 mi
2:00 PM52 °FPartly sunny.10 mph62%30.00 "Hg15 mi
Weather by CustomWeather, © 2016

See weather overviewHow to use our weather pages